Time,TemperatureF,DewpointF,PressureIn,WindDirection,WindDirectionDegrees,WindSpeedMPH,WindSpeedGustMPH,Humidity,HourlyPrecipIn,Conditions,Clouds,dailyrainin,SoftwareType,DateUTC
2013-04-06 00:00:00,51.5,17.7,29.98,NW,324,10.0,14.0,26,0.00,OVC,OVC,0.00,WeatherDisplay:10.31,2013-04-06 04:00:00,
2013-04-06 00:05:00,51.3,17.5,29.98,NW,324,8.0,16.0,26,0.00,OVC,OVC,0.00,WeatherDisplay:10.31,2013-04-06 04:05:00,
2013-04-06 00:15:00,51.0,17.3,29.98,NNW,330,5.0,16.0,26,0.00,OVC,OVC,0.00,WeatherDisplay:10.31,2013-04-06 04:15:00,
2013-04-06 00:20:00,50.8,18.0,29.99,NNW,331,2.0,14.0,27,0.00,OVC,OVC,0.00,WeatherDisplay:10.31,2013-04-06 04:20:00,
2013-04-06 00:30:00,50.4,17.6,29.99,NNW,341,5.0,12.0,27,0.00,OVC,OVC,0.00,WeatherDisplay:10.31,2013-04-06 04:30:00,
2013-04-06 00:35:00,50.2,17.5,29.99,NNW,338,7.0,13.0,27,0.00,OVC,OVC,0.00,WeatherDisplay:10.31,2013-04-06 04:35:00,
2013-04-06 00:40:00,50.1,18.2,29.99,NNW,342,9.0,13.0,28,0.00,OVC,OVC,0.00,WeatherDisplay:10.31,2013-04-06 04:40:00,
2013-04-06 00:50:00,49.6,17.8,30.00,NNW,336,7.0,12.0,28,0.00,OVC,OVC,0.00,WeatherDisplay:10.31,2013-04-06 04:50:00,
2013-04-06 00:55:00,49.5,17.7,30.00,NNW,330,3.0,13.0,28,0.00,OVC,OVC,0.00,WeatherDisplay:10.31,2013-04-06 04:55:00,
2013-04-06 01:00:00,49.2,16.6,30.00,NW,318,6.0,10.0,27,0.00,OVC,OVC,0.00,WeatherDisplay:10.31,2013-04-06 05:00:00,
2013-04-06 01:10:00,48.8,17.1,30.01,NW,321,6.0,12.0,28,0.00,OVC,OVC,0.00,WeatherDisplay:10.31,2013-04-06 05:10:00,
2013-04-06 01:15:00,48.6,16.9,30.01,NNW,330,7.0,12.0,28,0.00,OVC,OVC,0.00,WeatherDisplay:10.31,2013-04-06 05:15:00,
2013-04-06 01:25:00,48.2,16.6,30.01,NW,319,7.0,14.0,28,0.00,OVC,OVC,0.00,WeatherDisplay:10.31,2013-04-06 05:25:00,
2013-04-06 01:30:00,48.0,16.4,30.01,NW,320,8.0,13.0,28,0.00,OVC,OVC,0.00,WeatherDisplay:10.31,2013-04-06 05:30:00,
2013-04-06 01:35:00,47.7,16.1,30.02,NW,317,6.0,13.0,28,0.00,OVC,OVC,0.00,WeatherDisplay:10.31,2013-04-06 05:35:00,
2013-04-06 01:45:00,47.3,15.8,30.02,NNW,327,5.0,12.0,28,0.00,OVC,OVC,0.00,WeatherDisplay:10.31,2013-04-06 05:45:00,
2013-04-06 01:50:00,47.1,15.6,30.03,NW,324,5.0,14.0,28,0.00,OVC,OVC,0.00,WeatherDisplay:10.31,2013-04-06 05:50:00,
2013-04-06 01:55:00,47.0,15.5,30.03,NW,323,3.0,12.0,28,0.00,OVC,OVC,0.00,WeatherDisplay:10.31,2013-04-06 05:55:00,
2013-04-06 02:00:00,46.8,14.5,30.03,NW,318,7.0,12.0,27,0.00,OVC,OVC,0.00,WeatherDisplay:10.31,2013-04-06 06:00:00,
2013-04-06 02:10:00,46.4,14.2,30.04,NNW,328,8.0,14.0,27,0.00,OVC,OVC,0.00,WeatherDisplay:10.31,2013-04-06 06:10:00,
2013-04-06 02:20:00,46.1,14.8,30.04,NW,321,8.0,17.0,28,0.00,OVC,OVC,0.00,WeatherDisplay:10.31,2013-04-06 06:20:00,
2013-04-06 02:30:00,45.8,14.5,30.04,NNW,332,10.0,15.0,28,0.00,OVC,OVC,0.00,WeatherDisplay:10.31,2013-04-06 06:30:00,
2013-04-06 02:40:00,45.4,14.1,30.04,NW,314,5.0,13.0,28,0.00,OVC,OVC,0.00,WeatherDisplay:10.31,2013-04-06 06:40:00,
2013-04-06 02:50:00,44.9,13.7,30.04,NW,323,7.0,14.0,28,0.00,OVC,OVC,0.00,WeatherDisplay:10.31,2013-04-06 06:50:00,
2013-04-06 02:55:00,44.8,14.4,30.05,NNW,333,3.0,14.0,29,0.00,OVC,OVC,0.00,WeatherDisplay:10.31,2013-04-06 06:55:00,
2013-04-06 03:05:00,44.5,14.2,30.05,NW,324,3.0,16.0,29,0.00,OVC,OVC,0.00,WeatherDisplay:10.31,2013-04-06 07:05:00,
2013-04-06 03:10:00,44.3,14.8,30.05,NW,312,8.0,15.0,30,0.00,OVC,OVC,0.00,WeatherDisplay:10.31,2013-04-06 07:10:00,
2013-04-06 03:20:00,44.1,15.3,30.05,NNW,327,6.0,15.0,31,0.00,OVC,OVC,0.00,WeatherDisplay:10.31,2013-04-06 07:20:00,
2013-04-06 03:25:00,43.9,15.2,30.06,NW,326,2.0,12.0,31,0.00,OVC,OVC,0.00,WeatherDisplay:10.31,2013-04-06 07:25:00,
2013-04-06 03:35:00,43.6,15.6,30.06,NNW,328,7.0,12.0,32,0.00,OVC,OVC,0.00,WeatherDisplay:10.31,2013-04-06 07:35:00,
2013-04-06 03:45:00,43.3,16.1,30.06,NNW,337,5.0,12.0,33,0.00,OVC,OVC,0.00,WeatherDisplay:10.31,2013-04-06 07:45:00,
2013-04-06 03:50:00,43.2,16.7,30.07,NNW,342,6.0,10.0,34,0.00,OVC,OVC,0.00,WeatherDisplay:10.31,2013-04-06 07:50:00,
2013-04-06 04:00:00,42.9,16.4,30.07,NNW,335,6.0,12.0,34,0.00,OVC,OVC,0.00,WeatherDisplay:10.31,2013-04-06 08:00:00,
2013-04-06 04:10:00,42.6,16.8,30.08,NW,321,6.0,12.0,35,0.00,OVC,OVC,0.00,WeatherDisplay:10.31,2013-04-06 08:10:00,
2013-04-06 04:15:00,42.5,16.7,30.09,NNW,331,5.0,12.0,35,0.00,OVC,OVC,0.00,WeatherDisplay:10.31,2013-04-06 08:15:00,
2013-04-06 04:20:00,42.3,17.2,30.09,NNW,342,3.0,6.0,36,0.00,OVC,OVC,0.00,WeatherDisplay:10.31,2013-04-06 08:20:00,
2013-04-06 04:25:00,42.3,17.2,30.09,NNW,335,6.0,12.0,36,0.00,OVC,OVC,0.00,WeatherDisplay:10.31,2013-04-06 08:25:00,
2013-04-06 04:30:00,42.2,17.1,30.09,NNW,342,8.0,12.0,36,0.00,OVC,OVC,0.00,WeatherDisplay:10.31,2013-04-06 08:30:00,
2013-04-06 04:40:00,41.9,17.5,30.09,NW,323,2.0,10.0,37,0.00,OVC,OVC,0.00,WeatherDisplay:10.31,2013-04-06 08:40:00,
2013-04-06 04:50:00,41.6,17.8,30.10,NNW,337,3.0,12.0,38,0.00,OVC,OVC,0.00,WeatherDisplay:10.31,2013-04-06 08:50:00,
2013-04-06 04:55:00,41.5,17.7,30.10,NNW,340,3.0,13.0,38,0.00,OVC,OVC,0.00,WeatherDisplay:10.31,2013-04-06 08:55:00,
2013-04-06 05:10:00,41.2,18.1,30.10,NNW,342,1.0,12.0,39,0.00,OVC,OVC,0.00,WeatherDisplay:10.31,2013-04-06 09:10:00,
2013-04-06 05:15:00,41.2,18.6,30.11,NNW,340,6.0,9.0,40,0.00,OVC,OVC,0.00,WeatherDisplay:10.31,2013-04-06 09:15:00,
2013-04-06 05:20:00,41.1,18.6,30.11,NNW,342,5.0,7.0,40,0.00,OVC,OVC,0.00,WeatherDisplay:10.31,2013-04-06 09:20:00,
2013-04-06 05:30:00,40.8,18.3,30.12,NNW,341,1.0,3.0,40,0.00,OVC,OVC,0.00,WeatherDisplay:10.31,2013-04-06 09:30:00,
2013-04-06 05:35:00,40.8,18.3,30.12,NNW,347,1.0,7.0,40,0.00,OVC,OVC,0.00,WeatherDisplay:10.31,2013-04-06 09:35:00,
2013-04-06 05:40:00,40.6,18.7,30.12,North,3,1.0,10.0,41,0.00,OVC,OVC,0.00,WeatherDisplay:10.31,2013-04-06 09:40:00,
2013-04-06 05:50:00,40.3,18.4,30.13,North,359,3.0,9.0,41,0.00,OVC,OVC,0.00,WeatherDisplay:10.31,2013-04-06 09:50:00,
2013-04-06 05:55:00,40.3,19.0,30.13,North,359,3.0,8.0,42,0.00,OVC,OVC,0.00,WeatherDisplay:10.31,2013-04-06 09:55:00,
2013-04-06 06:00:00,40.2,18.9,30.14,North,0,5.0,7.0,42,0.00,OVC,OVC,0.00,WeatherDisplay:10.31,2013-04-06 10:00:00,
2013-04-06 06:05:00,40.1,18.8,30.15,North,0,6.0,10.0,42,0.00,OVC,OVC,0.00,WeatherDisplay:10.31,2013-04-06 10:05:00,
2013-04-06 06:15:00,39.9,19.2,30.15,North,6,2.0,12.0,43,0.00,OVC,OVC,0.00,WeatherDisplay:10.31,2013-04-06 10:15:00,
2013-04-06 06:20:00,39.8,19.1,30.16,North,358,3.0,9.0,43,0.00,OVC,OVC,0.00,WeatherDisplay:10.31,2013-04-06 10:20:00,
2013-04-06 06:30:00,39.6,18.9,30.16,North,359,3.0,12.0,43,0.00,OVC,OVC,0.00,WeatherDisplay:10.31,2013-04-06 10:30:00,
2013-04-06 06:40:00,39.5,19.4,30.17,NNW,348,6.0,9.0,44,0.00,OVC,OVC,0.00,WeatherDisplay:10.31,2013-04-06 10:40:00,
2013-04-06 06:50:00,39.2,19.1,30.17,NNW,348,5.0,13.0,44,0.00,CLR,CLR,0.00,WeatherDisplay:10.31,2013-04-06 10:50:00,
2013-04-06 07:00:00,39.1,19.0,30.18,NNW,344,7.0,12.0,44,0.00,SCT,SCT,0.00,WeatherDisplay:10.31,2013-04-06 11:00:00,
2013-04-06 07:05:00,39.1,19.0,30.18,NNW,341,2.0,12.0,44,0.00,BKN,BKN,0.00,WeatherDisplay:10.31,2013-04-06 11:05:00,
2013-04-06 07:10:00,38.9,18.8,30.19,NNW,341,3.0,13.0,44,0.00,BKN,BKN,0.00,WeatherDisplay:10.31,2013-04-06 11:10:00,
2013-04-06 07:20:00,38.9,19.3,30.20,NNW,345,5.0,12.0,45,0.00,OVC,OVC,0.00,WeatherDisplay:10.31,2013-04-06 11:20:00,
2013-04-06 07:30:00,39.1,19.0,30.21,North,357,6.0,12.0,44,0.00,OVC,OVC,0.00,WeatherDisplay:10.31,2013-04-06 11:30:00,
2013-04-06 07:35:00,39.1,19.0,30.21,North,351,3.0,7.0,44,0.00,BKN,BKN,0.00,WeatherDisplay:10.31,2013-04-06 11:35:00,
2013-04-06 07:45:00,39.5,19.4,30.21,North,350,3.0,10.0,44,0.00,CLR,CLR,0.00,WeatherDisplay:10.31,2013-04-06 11:45:00,
2013-04-06 07:50:00,39.7,19.5,30.22,North,358,5.0,10.0,44,0.00,CLR,CLR,0.00,WeatherDisplay:10.31,2013-04-06 11:50:00,
2013-04-06 08:00:00,40.2,18.9,30.22,North,355,3.0,10.0,42,0.00,CLR,CLR,0.00,WeatherDisplay:10.31,2013-04-06 12:00:00,
2013-04-06 08:05:00,40.5,19.2,30.23,North,5,3.0,9.0,42,0.00,CLR,CLR,0.00,WeatherDisplay:10.31,2013-04-06 12:05:00,
2013-04-06 08:10:00,40.8,18.9,30.23,North,7,5.0,10.0,41,0.00,CLR,CLR,0.00,WeatherDisplay:10.31,2013-04-06 12:10:00,
2013-04-06 08:15:00,41.1,19.2,30.23,North,358,7.0,10.0,41,0.00,CLR,CLR,0.00,WeatherDisplay:10.31,2013-04-06 12:15:00,
2013-04-06 08:25:00,41.5,19.0,30.23,North,356,3.0,9.0,40,0.00,CLR,CLR,0.00,WeatherDisplay:10.31,2013-04-06 12:25:00,
2013-04-06 08:30:00,41.8,18.7,30.23,NNE,15,13.0,18.0,39,0.00,CLR,CLR,0.00,WeatherDisplay:10.31,2013-04-06 12:30:00,
2013-04-06 08:40:00,42.2,19.0,30.24,NNE,13,8.0,18.0,39,0.00,CLR,CLR,0.00,WeatherDisplay:10.31,2013-04-06 12:40:00,
2013-04-06 08:55:00,42.6,18.7,30.24,North,9,6.0,12.0,38,0.00,CLR,CLR,0.00,WeatherDisplay:10.31,2013-04-06 12:55:00,
2013-04-06 09:00:00,42.9,18.4,30.24,North,357,7.0,13.0,37,0.00,CLR,CLR,0.00,WeatherDisplay:10.31,2013-04-06 13:00:00,
2013-04-06 09:05:00,43.3,18.7,30.25,North,353,5.0,10.0,37,0.00,CLR,CLR,0.00,WeatherDisplay:10.31,2013-04-06 13:05:00,
2013-04-06 09:15:00,44.1,18.8,30.25,NNE,23,5.0,12.0,36,0.00,CLR,CLR,0.00,WeatherDisplay:10.31,2013-04-06 13:15:00,
2013-04-06 09:20:00,44.5,18.5,30.25,NNE,25,3.0,12.0,35,0.00,CLR,CLR,0.00,WeatherDisplay:10.31,2013-04-06 13:20:00,
2013-04-06 09:30:00,44.8,18.8,30.25,North,1,2.0,13.0,35,0.00,CLR,CLR,0.00,WeatherDisplay:10.31,2013-04-06 13:30:00,
2013-04-06 09:35:00,45.1,18.4,30.26,North,2,6.0,12.0,34,0.00,CLR,CLR,0.00,WeatherDisplay:10.31,2013-04-06 13:35:00,
2013-04-06 09:40:00,45.2,18.5,30.26,North,1,2.0,12.0,34,0.00,CLR,CLR,0.00,WeatherDisplay:10.31,2013-04-06 13:40:00,
2013-04-06 09:50:00,45.8,18.3,30.26,NNW,347,8.0,12.0,33,0.00,CLR,CLR,0.00,WeatherDisplay:10.31,2013-04-06 13:50:00,
2013-04-06 10:00:00,46.4,18.1,30.26,NNE,23,5.0,12.0,32,0.00,CLR,CLR,0.00,WeatherDisplay:10.31,2013-04-06 14:00:00,
2013-04-06 10:05:00,46.8,17.7,30.26,NNE,21,3.0,9.0,31,0.00,CLR,CLR,0.00,WeatherDisplay:10.31,2013-04-06 14:05:00,
2013-04-06 10:10:00,47.2,18.0,30.26,North,6,6.0,10.0,31,0.00,CLR,CLR,0.00,WeatherDisplay:10.31,2013-04-06 14:10:00,
2013-04-06 10:15:00,47.5,17.5,30.26,North,349,3.0,7.0,30,0.00,CLR,CLR,0.00,WeatherDisplay:10.31,2013-04-06 14:15:00,
2013-04-06 10:20:00,47.7,17.0,30.26,North,353,6.0,13.0,29,0.00,CLR,CLR,0.00,WeatherDisplay:10.31,2013-04-06 14:20:00,
2013-04-06 10:30:00,48.5,17.6,30.26,NE,35,2.0,9.0,29,0.00,CLR,CLR,0.00,WeatherDisplay:10.31,2013-04-06 14:30:00,
2013-04-06 10:40:00,49.3,18.3,30.27,NNE,20,6.0,9.0,29,0.00,CLR,CLR,0.00,WeatherDisplay:10.31,2013-04-06 14:40:00,
2013-04-06 10:45:00,49.5,17.7,30.27,NNE,21,3.0,9.0,28,0.00,CLR,CLR,0.00,WeatherDisplay:10.31,2013-04-06 14:45:00,
2013-04-06 10:50:00,49.9,18.0,30.27,NNE,15,3.0,6.0,28,0.00,CLR,CLR,0.00,WeatherDisplay:10.31,2013-04-06 14:50:00,
2013-04-06 11:00:00,50.5,18.6,30.27,NNW,348,6.0,10.0,28,0.00,CLR,CLR,0.00,WeatherDisplay:10.31,2013-04-06 15:00:00,
2013-04-06 11:10:00,50.8,18.0,30.27,NNE,20,3.0,7.0,27,0.00,CLR,CLR,0.00,WeatherDisplay:10.31,2013-04-06 15:10:00,
2013-04-06 11:20:00,51.9,18.9,30.27,NE,42,0.0,3.0,27,0.00,CLR,CLR,0.00,WeatherDisplay:10.31,2013-04-06 15:20:00,
2013-04-06 11:30:00,52.9,18.0,30.27,NE,35,3.0,10.0,25,0.00,CLR,CLR,0.00,WeatherDisplay:10.31,2013-04-06 15:30:00,
2013-04-06 11:35:00,53.4,19.3,30.27,NE,42,3.0,6.0,26,0.00,CLR,CLR,0.00,WeatherDisplay:10.31,2013-04-06 15:35:00,
2013-04-06 11:45:00,54.3,18.2,30.26,NE,45,0.0,6.0,24,0.00,CLR,CLR,0.00,WeatherDisplay:10.31,2013-04-06 15:45:00,
2013-04-06 11:50:00,54.8,18.6,30.27,NE,45,2.0,3.0,24,0.00,CLR,CLR,0.00,WeatherDisplay:10.31,2013-04-06 15:50:00,
2013-04-06 12:00:00,53.6,18.6,30.27,East,85,2.0,5.0,25,0.00,CLR,CLR,0.00,WeatherDisplay:10.31,2013-04-06 16:00:00,
2013-04-06 12:05:00,53.8,17.8,30.27,ENE,77,5.0,7.0,24,0.00,CLR,CLR,0.00,WeatherDisplay:10.31,2013-04-06 16:05:00,
2013-04-06 12:10:00,53.6,17.6,30.27,ENE,74,0.0,5.0,24,0.00,FEW,FEW,0.00,WeatherDisplay:10.31,2013-04-06 16:10:00,
2013-04-06 12:20:00,54.7,19.5,30.27,East,87,2.0,5.0,25,0.00,CLR,CLR,0.00,WeatherDisplay:10.31,2013-04-06 16:20:00,
2013-04-06 12:30:00,54.7,18.6,30.26,ESE,116,1.0,5.0,24,0.00,FEW,FEW,0.00,WeatherDisplay:10.31,2013-04-06 16:30:00,
2013-04-06 12:40:00,54.5,18.4,30.26,East,99,5.0,9.0,24,0.00,FEW,FEW,0.00,WeatherDisplay:10.31,2013-04-06 16:40:00,
2013-04-06 12:50:00,54.8,17.7,30.26,East,96,3.0,6.0,23,0.00,FEW,FEW,0.00,WeatherDisplay:10.31,2013-04-06 16:50:00,
2013-04-06 13:00:00,54.5,18.4,30.26,East,91,1.0,5.0,24,0.00,FEW,FEW,0.00,WeatherDisplay:10.31,2013-04-06 17:00:00,
2013-04-06 13:10:00,55.3,17.0,30.26,ENE,76,2.0,5.0,22,0.00,FEW,FEW,0.00,WeatherDisplay:10.31,2013-04-06 17:10:00,
2013-04-06 13:20:00,55.3,14.8,30.26,SSE,150,2.0,5.0,20,0.00,FEW,FEW,0.00,WeatherDisplay:10.31,2013-04-06 17:20:00,
2013-04-06 13:30:00,56.2,15.6,30.26,ESE,120,1.0,5.0,20,0.00,FEW,FEW,0.00,WeatherDisplay:10.31,2013-04-06 17:30:00,
2013-04-06 13:40:00,57.4,15.4,30.25,NNE,33,0.0,3.0,19,0.00,FEW,FEW,0.00,WeatherDisplay:10.31,2013-04-06 17:40:00,
2013-04-06 13:50:00,58.3,16.2,30.25,NNE,29,2.0,3.0,19,0.00,FEW,FEW,0.00,WeatherDisplay:10.31,2013-04-06 17:50:00,
2013-04-06 13:55:00,59.2,15.7,30.25,NNE,21,2.0,5.0,18,0.00,CLR,CLR,0.00,WeatherDisplay:10.31,2013-04-06 17:55:00,
2013-04-06 14:00:00,59.0,17.9,30.24,NE,50,2.0,6.0,20,0.00,FEW,FEW,0.00,WeatherDisplay:10.31,2013-04-06 18:00:00,
2013-04-06 14:10:00,59.5,17.2,30.24,East,82,0.0,3.0,19,0.00,CLR,CLR,0.00,WeatherDisplay:10.31,2013-04-06 18:10:00,
2013-04-06 14:20:00,61.1,18.5,30.24,SE,130,1.0,3.0,19,0.00,CLR,CLR,0.00,WeatherDisplay:10.31,2013-04-06 18:20:00,
2013-04-06 14:30:00,62.7,18.5,30.23,North,352,1.0,3.0,18,0.00,CLR,CLR,0.00,WeatherDisplay:10.31,2013-04-06 18:30:00,
2013-04-06 14:35:00,62.4,16.9,30.23,NE,52,2.0,6.0,17,0.00,CLR,CLR,0.00,WeatherDisplay:10.31,2013-04-06 18:35:00,
2013-04-06 14:40:00,60.8,16.9,30.23,East,81,3.0,5.0,18,0.00,CLR,CLR,0.00,WeatherDisplay:10.31,2013-04-06 18:40:00,
2013-04-06 14:45:00,59.9,16.2,30.23,East,88,0.0,3.0,18,0.00,CLR,CLR,0.00,WeatherDisplay:10.31,2013-04-06 18:45:00,
2013-04-06 14:55:00,61.2,18.5,30.23,NE,42,0.0,3.0,19,0.00,CLR,CLR,0.00,WeatherDisplay:10.31,2013-04-06 18:55:00,
2013-04-06 15:00:00,61.8,16.5,30.22,NE,35,2.0,3.0,17,0.00,CLR,CLR,0.00,WeatherDisplay:10.31,2013-04-06 19:00:00,
2013-04-06 15:05:00,60.6,15.5,30.22,East,88,2.0,7.0,17,0.00,FEW,FEW,0.00,WeatherDisplay:10.31,2013-04-06 19:05:00,
2013-04-06 15:15:00,59.6,16.0,30.22,ESE,123,3.0,6.0,18,0.00,CLR,CLR,0.00,WeatherDisplay:10.31,2013-04-06 19:15:00,
2013-04-06 15:20:00,60.1,16.4,30.22,SSE,153,1.0,5.0,18,0.00,CLR,CLR,0.00,WeatherDisplay:10.31,2013-04-06 19:20:00,
2013-04-06 15:30:00,60.5,14.0,30.21,SE,125,1.0,5.0,16,0.00,CLR,CLR,0.00,WeatherDisplay:10.31,2013-04-06 19:30:00,
2013-04-06 15:35:00,60.4,13.9,30.21,SE,139,2.0,5.0,16,0.00,FEW,FEW,0.00,WeatherDisplay:10.31,2013-04-06 19:35:00,
2013-04-06 15:45:00,60.7,15.6,30.20,SSE,157,1.0,6.0,17,0.00,CLR,CLR,0.00,WeatherDisplay:10.31,2013-04-06 19:45:00,
2013-04-06 15:50:00,60.4,13.9,30.20,ESE,107,1.0,7.0,16,0.00,CLR,CLR,0.00,WeatherDisplay:10.31,2013-04-06 19:50:00,
2013-04-06 15:55:00,60.2,16.5,30.20,East,90,1.0,5.0,18,0.00,CLR,CLR,0.00,WeatherDisplay:10.31,2013-04-06 19:55:00,
2013-04-06 16:05:00,60.2,16.5,30.20,SSE,166,3.0,6.0,18,0.00,FEW,FEW,0.00,WeatherDisplay:10.31,2013-04-06 20:05:00,
2013-04-06 16:10:00,60.9,18.3,30.20,SSW,196,1.0,5.0,19,0.00,CLR,CLR,0.00,WeatherDisplay:10.31,2013-04-06 20:10:00,
2013-04-06 16:20:00,60.9,18.3,30.20,SE,142,1.0,5.0,19,0.00,FEW,FEW,0.00,WeatherDisplay:10.31,2013-04-06 20:20:00,
2013-04-06 16:25:00,61.1,17.3,30.20,SSE,158,2.0,6.0,18,0.00,FEW,FEW,0.00,WeatherDisplay:10.31,2013-04-06 20:25:00,
2013-04-06 16:30:00,61.0,18.4,30.20,SE,146,5.0,7.0,19,0.00,CLR,CLR,0.00,WeatherDisplay:10.31,2013-04-06 20:30:00,
2013-04-06 16:40:00,60.4,16.6,30.19,SE,129,3.0,5.0,18,0.00,CLR,CLR,0.00,WeatherDisplay:10.31,2013-04-06 20:40:00,
2013-04-06 16:45:00,59.8,17.4,30.19,East,101,1.0,6.0,19,0.00,CLR,CLR,0.00,WeatherDisplay:10.31,2013-04-06 20:45:00,
2013-04-06 16:50:00,59.2,15.7,30.19,East,94,0.0,9.0,18,0.00,CLR,CLR,0.00,WeatherDisplay:10.31,2013-04-06 20:50:00,
2013-04-06 17:00:00,59.2,18.1,30.19,East,96,3.0,5.0,20,0.00,CLR,CLR,0.00,WeatherDisplay:10.31,2013-04-06 21:00:00,
2013-04-06 17:05:00,59.2,19.3,30.19,ESE,113,1.0,3.0,21,0.00,CLR,CLR,0.00,WeatherDisplay:10.31,2013-04-06 21:05:00,
2013-04-06 17:10:00,59.8,19.7,30.19,ESE,107,3.0,5.0,21,0.00,CLR,CLR,0.00,WeatherDisplay:10.31,2013-04-06 21:10:00,
2013-04-06 17:20:00,59.6,18.4,30.19,East,98,0.0,5.0,20,0.00,CLR,CLR,0.00,WeatherDisplay:10.31,2013-04-06 21:20:00,
2013-04-06 17:30:00,59.6,19.6,30.19,ESE,107,2.0,7.0,21,0.00,CLR,CLR,0.00,WeatherDisplay:10.31,2013-04-06 21:30:00,
2013-04-06 17:40:00,59.0,19.1,30.19,East,92,1.0,6.0,21,0.00,CLR,CLR,0.00,WeatherDisplay:10.31,2013-04-06 21:40:00,
2013-04-06 17:50:00,58.1,20.4,30.19,East,79,5.0,7.0,23,0.00,CLR,CLR,0.00,WeatherDisplay:10.31,2013-04-06 21:50:00,
2013-04-06 17:55:00,57.3,19.8,30.19,ENE,78,5.0,9.0,23,0.00,CLR,CLR,0.00,WeatherDisplay:10.31,2013-04-06 21:55:00,
2013-04-06 18:00:00,56.7,20.3,30.19,East,85,2.0,7.0,24,0.00,CLR,CLR,0.00,WeatherDisplay:10.31,2013-04-06 22:00:00,
2013-04-06 18:10:00,56.7,19.3,30.20,ESE,105,2.0,8.0,23,0.00,CLR,CLR,0.00,WeatherDisplay:10.31,2013-04-06 22:10:00,
2013-04-06 18:25:00,55.6,19.4,30.20,East,99,6.0,10.0,24,0.00,FEW,FEW,0.00,WeatherDisplay:10.31,2013-04-06 22:25:00,
2013-04-06 18:35:00,55.0,18.8,30.20,East,100,5.0,7.0,24,0.00,FEW,FEW,0.00,WeatherDisplay:10.31,2013-04-06 22:35:00,
2013-04-06 18:40:00,54.8,18.6,30.20,ESE,106,5.0,10.0,24,0.00,FEW,FEW,0.00,WeatherDisplay:10.31,2013-04-06 22:40:00,
2013-04-06 18:50:00,53.9,16.9,30.21,ESE,102,3.0,12.0,23,0.00,BKN,BKN,0.00,WeatherDisplay:10.31,2013-04-06 22:50:00,
2013-04-06 18:55:00,53.5,15.5,30.21,ESE,105,5.0,12.0,22,0.00,SCT,SCT,0.00,WeatherDisplay:10.31,2013-04-06 22:55:00,
2013-04-06 19:05:00,52.8,14.9,30.21,ESE,108,3.0,12.0,22,0.00,BKN,BKN,0.00,WeatherDisplay:10.31,2013-04-06 23:05:00,
2013-04-06 19:15:00,52.2,13.4,30.21,ESE,111,5.0,9.0,21,0.00,BKN,BKN,0.00,WeatherDisplay:10.31,2013-04-06 23:15:00,
2013-04-06 19:20:00,51.9,12.0,30.21,ESE,107,6.0,13.0,20,0.00,BKN,BKN,0.00,WeatherDisplay:10.31,2013-04-06 23:20:00,
2013-04-06 19:25:00,51.6,11.8,30.21,ESE,102,3.0,9.0,20,0.00,BKN,BKN,0.00,WeatherDisplay:10.31,2013-04-06 23:25:00,
2013-04-06 19:30:00,51.3,11.5,30.21,ESE,106,2.0,10.0,20,0.00,SCT,SCT,0.00,WeatherDisplay:10.31,2013-04-06 23:30:00,
2013-04-06 19:40:00,51.0,11.3,30.21,ESE,107,3.0,9.0,20,0.00,OVC,OVC,0.00,WeatherDisplay:10.31,2013-04-06 23:40:00,
2013-04-06 19:50:00,50.5,12.0,30.22,ESE,110,6.0,9.0,21,0.00,OVC,OVC,0.00,WeatherDisplay:10.31,2013-04-06 23:50:00,
2013-04-06 20:00:00,50.2,10.6,30.22,ESE,113,5.0,10.0,20,0.00,OVC,OVC,0.00,WeatherDisplay:10.31,2013-04-07 00:00:00,
2013-04-06 20:10:00,49.8,10.3,30.21,ESE,120,3.0,8.0,20,0.00,OVC,OVC,0.00,WeatherDisplay:10.31,2013-04-07 00:10:00,
2013-04-06 20:15:00,49.6,11.2,30.21,ESE,112,2.0,7.0,21,0.00,OVC,OVC,0.00,WeatherDisplay:10.31,2013-04-07 00:15:00,
2013-04-06 20:25:00,49.4,11.0,30.22,ESE,113,2.0,5.0,21,0.00,OVC,OVC,0.00,WeatherDisplay:10.31,2013-04-07 00:25:00,
2013-04-06 20:30:00,49.3,12.0,30.22,ESE,113,2.0,5.0,22,0.00,OVC,OVC,0.00,WeatherDisplay:10.31,2013-04-07 00:30:00,
2013-04-06 20:40:00,49.1,12.8,30.22,ESE,113,2.0,3.0,23,0.00,OVC,OVC,0.00,WeatherDisplay:10.31,2013-04-07 00:40:00,
2013-04-06 20:45:00,48.9,12.7,30.22,ESE,113,2.0,3.0,23,0.00,OVC,OVC,0.00,WeatherDisplay:10.31,2013-04-07 00:45:00,
2013-04-06 20:55:00,48.8,13.5,30.22,ESE,114,2.0,6.0,24,0.00,OVC,OVC,0.00,WeatherDisplay:10.31,2013-04-07 00:55:00,
2013-04-06 21:00:00,48.6,13.4,30.22,ESE,113,3.0,7.0,24,0.00,OVC,OVC,0.00,WeatherDisplay:10.31,2013-04-07 01:00:00,
2013-04-06 21:10:00,48.5,15.1,30.22,ESE,116,1.0,5.0,26,0.00,OVC,OVC,0.00,WeatherDisplay:10.31,2013-04-07 01:10:00,
2013-04-06 21:15:00,48.3,15.8,30.22,ESE,119,3.0,7.0,27,0.00,OVC,OVC,0.00,WeatherDisplay:10.31,2013-04-07 01:15:00,
2013-04-06 21:20:00,48.3,16.7,30.22,ESE,122,0.0,6.0,28,0.00,OVC,OVC,0.00,WeatherDisplay:10.31,2013-04-07 01:20:00,
2013-04-06 21:30:00,48.2,17.4,30.22,ESE,122,2.0,5.0,29,0.00,OVC,OVC,0.00,WeatherDisplay:10.31,2013-04-07 01:30:00,
2013-04-06 21:35:00,48.0,18.0,30.22,ESE,123,2.0,7.0,30,0.00,OVC,OVC,0.00,WeatherDisplay:10.31,2013-04-07 01:35:00,
2013-04-06 21:40:00,48.0,18.8,30.22,ESE,119,1.0,5.0,31,0.00,OVC,OVC,0.00,WeatherDisplay:10.31,2013-04-07 01:40:00,
2013-04-06 21:50:00,47.7,19.2,30.23,ESE,116,2.0,6.0,32,0.00,OVC,OVC,0.00,WeatherDisplay:10.31,2013-04-07 01:50:00,
2013-04-06 22:00:00,47.6,20.6,30.23,SE,129,1.0,7.0,34,0.00,OVC,OVC,0.00,WeatherDisplay:10.31,2013-04-07 02:00:00,
2013-04-06 22:10:00,47.4,21.1,30.22,ESE,120,3.0,6.0,35,0.00,OVC,OVC,0.00,WeatherDisplay:10.31,2013-04-07 02:10:00,
2013-04-06 22:20:00,47.1,21.5,30.22,SE,128,1.0,7.0,36,0.00,OVC,OVC,0.00,WeatherDisplay:10.31,2013-04-07 02:20:00,
2013-04-06 22:30:00,46.8,22.5,30.22,SSE,149,2.0,5.0,38,0.00,OVC,OVC,0.00,WeatherDisplay:10.31,2013-04-07 02:30:00,
2013-04-06 22:40:00,46.5,23.5,30.22,SE,136,0.0,6.0,40,0.00,OVC,OVC,0.00,WeatherDisplay:10.31,2013-04-07 02:40:00,
2013-04-06 22:50:00,46.2,24.9,30.23,SSE,154,2.0,12.0,43,0.00,OVC,OVC,0.00,WeatherDisplay:10.31,2013-04-07 02:50:00,
2013-04-06 23:00:00,46.0,26.4,30.23,SSE,158,2.0,10.0,46,0.00,OVC,OVC,0.00,WeatherDisplay:10.31,2013-04-07 03:00:00,
2013-04-06 23:05:00,45.8,26.7,30.23,SE,144,1.0,10.0,47,0.00,OVC,OVC,0.00,WeatherDisplay:10.31,2013-04-07 03:05:00,
2013-04-06 23:10:00,45.7,27.1,30.22,SE,135,3.0,6.0,48,0.00,OVC,OVC,0.00,WeatherDisplay:10.31,2013-04-07 03:10:00,
2013-04-06 23:20:00,45.4,27.8,30.22,SE,134,1.0,10.0,50,0.00,OVC,OVC,0.00,WeatherDisplay:10.31,2013-04-07 03:20:00,
2013-04-06 23:25:00,45.2,28.2,30.22,SE,133,2.0,6.0,51,0.00,OVC,OVC,0.00,WeatherDisplay:10.31,2013-04-07 03:25:00,
2013-04-06 23:30:00,45.2,28.6,30.23,SE,132,2.0,5.0,52,0.00,OVC,OVC,0.00,WeatherDisplay:10.31,2013-04-07 03:30:00,
2013-04-06 23:35:00,45.1,29.0,30.23,SE,142,2.0,6.0,53,0.00,OVC,OVC,0.00,WeatherDisplay:10.31,2013-04-07 03:35:00,
2013-04-06 23:40:00,45.0,28.9,30.23,SSE,153,3.0,7.0,53,0.00,OVC,OVC,0.00,WeatherDisplay:10.31,2013-04-07 03:40:00,
2013-04-06 23:50:00,44.8,29.2,30.23,SSE,158,2.0,9.0,54,0.00,OVC,OVC,0.00,WeatherDisplay:10.31,2013-04-07 03:50:00,